Munising, MI

4:19 PM EDT on May 27, 2018 (GMT -0400)
Munising

Weather History for KP53 - July, 2013

Change the Weather History Date:

Wednesday, July 3, 2013

  Actual Average (KISQ) Record (KISQ)
Temperature  
Mean Temperature 60 °F -  
Max Temperature 73 °F 71 °F 93 °F (1966)
Min Temperature 50 °F 52 °F 37 °F (1972)
Degree Days  
Heating Degree Days 4    
Growing Degree Days 10 (Base 50)    
Moisture  
Dew Point 51 °F    
Average Humidity 67    
Maximum Humidity 86    
Minimum Humidity 49    
Precipitation  
Precipitation 0.00 in - - ()
Sea Level Pressure  
Sea Level Pressure 30.08 in    
Wind  
Wind Speed 4 mph (SE)    
Max Wind Speed 15 mph    
Max Gust Speed 18 mph    
Averages and records for this station are not official NWS values.
T = Trace of Precipitation, MM = Missing Value Source: NWS Daily Summary

Daily Weather History Graph

Daily Weather History Graph

Search for Another Location

Airport or City:

Astronomy

Jul. 03, 2013 Rise Set
Actual Time 5:59 AM EDT 9:42 PM EDT
Civil Twilight 5:20 AM EDT 10:20 PM EDT
Nautical Twilight 4:28 AM EDT 11:12 PM EDT
Astronomical Twilight 3:16 AM EDT 12:24 AM EDT
Moon 2:44 AM EDT (7/3) 5:46 PM EDT (7/3)
Length of Visible Light 16h 59m
Length of Day
15h 42m
Waning Crescent, 18% of the Moon is Illuminated
Jul 3
Waning Crescent
Jul 8
New
Jul 15
First Quarter
Jul 22
Full
Jul 29
Last Quarter

Hourly Weather History & Observations

Time (EDT) Temp. Dew Point Humidity Pressure Visibility Wind Dir Wind Speed Gust Speed Precip Events Conditions
12:56 AM 51.1 °F 46.0 °F 83% 30.12 in - South 5.8 mph - N/A   Unknown
1:56 AM 50.0 °F 46.0 °F 86% 30.12 in - South 4.6 mph - N/A   Unknown
2:56 AM 51.1 °F 46.0 °F 83% 30.11 in - South 4.6 mph - N/A   Unknown
3:56 AM 52.0 °F 46.0 °F 80% 30.10 in - South 4.6 mph - N/A   Unknown
4:56 AM 51.1 °F 46.9 °F 86% 30.10 in - South 3.5 mph - N/A   Unknown
5:56 AM 53.1 °F 46.9 °F 80% 30.10 in - Calm Calm - N/A   Unknown
6:56 AM 54.0 °F 46.9 °F 77% 30.11 in - Calm Calm - N/A   Unknown
7:56 AM 55.9 °F 48.0 °F 75% 30.11 in - South 4.6 mph - N/A   Unknown
8:56 AM 61.0 °F 48.0 °F 62% 30.13 in - SW 4.6 mph - N/A   Unknown
9:56 AM - - N/A% 30.13 in - Calm Calm - N/A   Unknown
10:56 AM 66.9 °F 55.0 °F 66% 30.13 in - Calm Calm - N/A   Unknown
11:56 AM 70.0 °F 57.9 °F 65% 30.11 in - NE 4.6 mph - N/A   Unknown
12:56 PM 69.1 °F 55.0 °F 61% 30.11 in - North 3.5 mph - N/A   Unknown
1:56 PM 71.1 °F 53.1 °F 53% 30.09 in - Calm Calm - N/A   Unknown
2:56 PM 71.1 °F 55.9 °F 59% 30.07 in - NE 15.0 mph - N/A   Unknown
3:56 PM 70.0 °F 55.0 °F 59% 30.07 in - NE 11.5 mph - N/A   Unknown
4:56 PM 70.0 °F 50.0 °F 49% 30.06 in - NNE 11.5 mph 18.4 mph N/A   Unknown
5:56 PM 71.1 °F 53.1 °F 53% 30.04 in - NNE 4.6 mph - N/A   Unknown
6:56 PM 70.0 °F 51.1 °F 51% 30.03 in - NE 12.7 mph - N/A   Unknown
7:56 PM 68.0 °F 53.1 °F 59% 30.02 in - Calm Calm - N/A   Unknown
8:56 PM 66.9 °F 52.0 °F 59% 30.02 in - Calm Calm - N/A   Unknown
9:56 PM 66.0 °F 52.0 °F 60% 30.02 in - Calm Calm - N/A   Unknown
10:56 PM 63.0 °F 52.0 °F 67% 30.02 in - Calm Calm - N/A   Unknown
11:56 PM 63.0 °F 51.1 °F 65% 30.02 in - South 4.6 mph - N/A   Unknown